EA7CL-13 Weather Reports


Display with metric or nautical units.
time (UTC)temp
F
wind
direction
speed
MPH
gust
MPH
rain 1hr
in
rain 24hr
in
rain mn
in
humidity
%
barometer
mb
20260510222217 65 270 1.0 2.0 0.00 0.00 0.00 57 1017.0
20260510221216 65 315 2.0 3.0 0.00 0.00 0.00 57 1017.1
20260510220237 65 0.0 0.0 0.00 0.00 0.00 57 1017.0
20260510215216 66 0.0 2.0 0.00 0.00 0.00 57 1017.0
20260510214216 66 248 1.0 2.0 0.00 0.00 0.00 57 1017.0
20260510213215 66 0.0 1.0 0.00 0.00 0.00 57 1017.0
20260510212216 66 293 1.0 2.0 0.00 0.00 0.00 58 1016.9
20260510211216 66 23 3.0 5.0 0.00 0.00 0.00 59 1017.0
20260510210215 66 23 3.0 6.0 0.00 0.00 0.00 60 1017.1
20260510205215 66 0 2.0 3.0 0.00 0.00 0.00 62 1017.0
20260510204216 66 0 2.0 4.0 0.00 0.00 0.00 65 1016.9
20260510203215 66 338 1.0 2.0 0.00 0.00 0.00 67 1016.9
20260510202217 66 0.0 1.0 0.00 0.00 0.00 68 1016.8
20260510201215 66 0 3.0 4.0 0.00 0.00 0.00 68 1016.8
20260510200215 67 0.0 1.0 0.00 0.00 0.00 68 1016.5
20260510195235 67 0.0 1.0 0.00 0.00 0.00 68 1016.4
20260510194219 67 0.0 1.0 0.00 0.00 0.00 69 1016.3
20260510193218 67 0.0 1.0 0.00 0.00 0.00 70 1016.3
20260510192217 67 23 2.0 2.0 0.00 0.00 0.00 70 1016.3
20260510191217 67 0 2.0 4.0 0.00 0.00 0.00 70 1016.3
20260510190218 67 0 1.0 2.0 0.00 0.00 0.00 69 1016.2
20260510185217 67 23 3.0 4.0 0.00 0.00 0.00 69 1016.1
20260510184217 67 45 3.0 4.0 0.00 0.00 0.00 69 1016.1
20260510183217 67 68 3.0 4.0 0.00 0.00 0.00 69 1016.1
20260510182240 68 23 1.0 2.0 0.00 0.00 0.00 69 1016.2
20260510181218 68 45 2.0 4.0 0.00 0.00 0.00 69 1016.1
20260510180217 68 45 5.0 6.0 0.00 0.00 0.00 68 1016.2
20260510175218 68 45 3.0 4.0 0.00 0.00 0.00 67 1016.1
20260510174237 70 135 3.0 4.0 0.00 0.00 0.00 65 1016.1
20260510173218 70 0.0 0.0 0.00 0.00 0.00 66 1015.9
20260510172218 70 135 1.0 4.0 0.00 0.00 0.00 65 1016.0
20260510171218 70 158 1.0 4.0 0.00 0.00 0.00 65 1015.9
20260510170217 70 158 3.0 5.0 0.00 0.00 0.00 66 1015.8
20260510165217 69 113 3.0 7.0 0.00 0.01 0.00 66 1015.8
20260510164218 69 90 5.0 6.0 0.00 0.01 0.00 66 1016.0
20260510163217 69 158 4.0 8.0 0.00 0.01 0.00 67 1016.2
20260510162217 68 135 4.0 9.0 0.00 0.01 0.00 68 1016.2
20260510161222 68 68 5.0 9.0 0.00 0.01 0.00 68 1016.1
20260510160259 69 90 8.0 14.0 0.00 0.01 0.00 67 1015.8
20260510155218 69 90 7.0 11.0 0.00 0.01 0.00 67 1015.7
20260510154217 70 90 9.0 15.0 0.00 0.01 0.00 65 1015.7
20260510153218 72 68 6.0 10.0 0.00 0.01 0.00 65 1015.9
20260510152448 0 302 0.0 0.0 0.00 0.00 0.00
20260510152217 73 113 5.0 8.0 0.00 0.02 0.00 61 1015.9
20260510152048 0 302 0.0 0.0 0.00 0.00 0.00
20260510151648 0 302 0.0 0.0 0.00 0.00 0.00
20260510151217 74 158 5.0 12.0 0.00 0.03 0.00 61 1015.9
20260510151121 0 7 0.0 0.0 0.00 0.00 0.00
20260510150723 0 296 1.0 0.0 0.00 0.00 0.00
20260510150218 73 90 2.0 4.0 0.00 0.05 0.00 62 1016.1
20260510145217 71 225 5.0 10.0 0.00 0.05 0.00 59 1016.2
20260510144218 69 248 3.0 8.0 0.00 0.05 0.00 61 1016.3
20260510143216 69 0.0 2.0 0.00 0.05 0.00 70 1016.5
20260510142216 69 90 5.0 11.0 0.00 0.05 0.00 69 1016.6
20260510141217 70 135 3.0 4.0 0.00 0.05 0.00 69 1016.9
20260510140217 70 180 6.0 10.0 0.00 0.05 0.00 69 1017.0
20260510135216 70 113 4.0 10.0 0.00 0.05 0.00 70 1017.1
20260510134216 69 135 3.0 7.0 0.00 0.05 0.00 71 1017.1
20260510133216 69 135 3.0 6.0 0.00 0.05 0.00 73 1017.2
20260510132238 68 158 2.0 5.0 0.00 0.05 0.00 75 1017.1
20260510131217 67 180 5.0 7.0 0.00 0.06 0.00 76 1017.3
20260510130216 66 203 3.0 3.0 0.00 0.07 0.00 75 1017.4
20260510125217 67 203 3.0 4.0 0.00 0.07 0.00 74 1017.1
20260510124217 67 203 3.0 4.0 0.00 0.07 0.00 74 1017.1
20260510123216 67 0.0 1.0 0.00 0.07 0.00 73 1017.0
20260510122216 67 113 1.0 3.0 0.00 0.07 0.00 72 1017.0
20260510121217 68 135 1.0 2.0 0.00 0.07 0.00 72 1017.3
20260510120216 68 135 1.0 2.0 0.00 0.07 0.00 73 1017.2
20260510115216 68 68 3.0 5.0 0.00 0.07 0.00 71 1017.4
20260510114216 68 180 1.0 3.0 0.00 0.07 0.00 71 1017.4
20260510113217 68 113 4.0 7.0 0.00 0.07 0.00 70 1017.4
20260510112216 69 180 7.0 11.0 0.00 0.07 0.00 67 1017.5
20260510111217 70 135 3.0 5.0 0.00 0.07 0.00 66 1017.5
20260510110216 70 90 2.0 6.0 0.00 0.07 0.00 66 1017.6
20260510105216 71 135 2.0 4.0 0.00 0.07 0.00 66 1017.6
20260510104217 70 180 2.0 5.0 0.00 0.09 0.00 67 1017.6
20260510103216 68 68 4.0 7.0 0.00 0.09 0.00 68 1017.6
20260510102216 68 90 6.0 10.0 0.00 0.09 0.00 68 1017.7
20260510101216 68 158 4.0 7.0 0.00 0.14 0.00 70 1017.6
20260510100216 67 90 5.0 7.0 0.00 0.16 0.00 69 1017.5
20260510095216 67 90 1.0 3.0 0.00 0.28 0.00 69 1017.6
20260510094216 67 113 4.0 6.0 0.00 0.30 0.00 69 1017.6
20260510093216 67 135 1.0 2.0 0.00 0.33 0.00 69 1017.6
20260510092216 67 158 2.0 4.0 0.00 0.35 0.00 68 1017.4
20260510091236 67 0.0 1.0 0.00 0.35 0.00 68 1017.5
20260510090216 67 158 2.0 4.0 0.00 0.35 0.00 68 1017.4
20260510085216 67 203 2.0 4.0 0.00 0.35 0.00 68 1017.4
20260510084237 67 90 3.0 4.0 0.00 0.35 0.00 68 1017.3
20260510083217 67 135 1.0 3.0 0.00 0.35 0.00 70 1017.2
20260510082215 66 158 1.0 2.0 0.00 0.35 0.00 71 1017.2
20260510081216 65 68 1.0 2.0 0.00 0.35 0.00 71 1017.3
20260510080258 65 158 1.0 2.0 0.00 0.35 0.00 73 1017.2
20260510075215 65 0.0 1.0 0.00 0.35 0.00 74 1017.3
20260510074215 64 0.0 1.0 0.00 0.35 0.00 74 1017.1
20260510073216 64 158 3.0 4.0 0.00 0.35 0.00 75 1017.0
20260510072215 64 0.0 1.0 0.00 0.35 0.00 78 1017.0
20260510071216 63 90 1.0 2.0 0.00 0.35 0.00 78 1016.9
20260510070216 63 68 4.0 5.0 0.00 0.35 0.00 78 1016.8
20260510065217 62 68 5.0 6.0 0.00 0.35 0.00 80 1016.8
20260510064215 62 0.0 1.0 0.00 0.35 0.00 81 1016.9
20260510063215 61 45 3.0 5.0 0.00 0.35 0.00 81 1016.9
20260510062235 61 68 3.0 5.0 0.00 0.35 0.00 82 1016.8
20260510061215 61 68 2.0 3.0 0.00 0.35 0.00 83 1016.7
20260510060216 60 68 2.0 3.0 0.00 0.37 0.00 83 1016.6
20260510055237 60 45 3.0 3.0 0.00 0.37 0.00 83 1016.7
20260510054219 60 45 1.0 2.0 0.00 0.37 0.00 83 1016.6
20260510053218 60 45 1.0 3.0 0.00 0.37 0.00 82 1016.5
20260510052239 60 45 1.0 2.0 0.00 0.37 0.00 82 1016.4
20260510051218 60 45 3.0 5.0 0.00 0.37 0.00 82 1016.2
20260510050257 60 45 1.0 2.0 0.00 0.37 0.00 82 1016.3
20260510045217 60 45 1.0 3.0 0.00 0.37 0.00 82 1016.2
20260510044217 60 45 1.0 3.0 0.00 0.37 0.00 82 1016.1
20260510043218 60 68 3.0 4.0 0.00 0.37 0.00 82 1016.2
20260510042257 60 45 3.0 4.0 0.00 0.37 0.00 82 1016.1
20260510041238 60 0.0 1.0 0.00 0.37 0.00 82 1016.1
20260510040217 60 68 3.0 4.0 0.00 0.37 0.00 82 1016.1
20260510035218 60 45 2.0 3.0 0.00 0.37 0.00 81 1016.1
20260510034217 60 45 2.0 2.0 0.00 0.37 0.00 81 1016.2
20260510033237 60 45 1.0 2.0 0.00 0.37 0.00 81 1016.2
20260510032217 61 0.0 1.0 0.00 0.37 0.00 81 1016.2
20260510031237 61 68 2.0 3.0 0.00 0.37 0.00 81 1016.2
20260510030257 61 68 4.0 5.0 0.00 0.37 0.00 81 1016.2
20260510025218 60 45 3.0 4.0 0.00 0.37 0.00 81 1016.3
20260510024217 60 45 3.0 4.0 0.00 0.37 0.00 81 1016.3
20260510023217 60 45 3.0 5.0 0.00 0.37 0.00 81 1016.3
20260510022217 60 45 1.0 2.0 0.00 0.37 0.00 82 1016.5
20260510021217 60 68 4.0 5.0 0.00 0.37 0.00 82 1016.3
20260510020240 60 45 3.0 4.0 0.00 0.37 0.00 82 1016.4
20260510015237 60 45 2.0 3.0 0.00 0.37 0.00 82 1016.3
20260510014216 60 68 3.0 4.0 0.00 0.37 0.00 82 1016.3
20260510013237 60 45 5.0 9.0 0.00 0.37 0.00 83 1016.4
20260510012216 60 68 3.0 5.0 0.00 0.37 0.00 83 1016.5
20260510011217 60 45 3.0 4.0 0.00 0.37 0.00 83 1016.7
20260510010216 60 45 4.0 6.0 0.00 0.37 0.00 83 1016.7
20260510005216 60 0.0 0.0 0.00 0.37 0.00 83 1016.8
20260510004216 60 68 2.0 3.0 0.00 0.37 0.00 83 1016.9
20260510003218 60 45 4.0 5.0 0.00 0.37 0.00 83 1016.9
20260510002218 60 45 3.0 4.0 0.00 0.37 0.00 83 1017.0
20260510001218 60 0.0 0.0 0.00 0.37 0.00 83 1017.1
20260510000219 60 68 2.0 3.0 0.00 0.37 0.00 83 1017.1
20260509235216 60 68 1.0 2.0 0.00 0.37 0.00 83 1017.1
20260509234217 61 0.0 0.0 0.00 0.37 0.00 83 1017.1
20260509233218 61 0.0 0.0 0.00 0.37 0.00 83 1017.1
20260509232218 61 0.0 0.0 0.00 0.37 0.00 83 1017.2
20260509231216 61 0.0 0.0 0.00 0.37 0.00 83 1017.2
20260509230216 61 68 2.0 3.0 0.00 0.37 0.00 83 1017.3
20260509225217 61 23 1.0 3.0 0.00 0.37 0.00 83 1017.4
20260509224216 61 23 1.0 3.0 0.00 0.37 0.00 83 1017.3
20260509223216 61 45 1.0 3.0 0.00 0.37 0.00 83 1017.4